Zurück zum Katalog

COSMOS 1660 DEB

AktivLEO
NORAD 43313·DEBRIS·🇷🇺 Russia

Gestartet Jun 14, 1985 von Plesetsk Cosmodrome

Loading…

Nächste Überflüge (nächste 24 Stunden)

TLE

VeraltetSource: Space-Track

Epoche: Aug 31, 2026, 22:02 UTC

1 43313U 85047CE  26243.91846160 -.00000005  00000-0  91731-4 0  9991
2 43313  73.6255  81.7767 0027430 318.6948 107.5268 12.41080084816883

Verfolge COSMOS 1660 DEB in Echtzeit mit AllMySat

Download on the App Store